Home > Weather > Naumburg (Saale) > Past weeks

Flag for Germany Weather for the Past 2 Weeks in Naumburg (Saale), Saxony-Anhalt, Germany

Now
43 °F

Clear.


Feels Like: 36 °F
Forecast: 36 / 52 °F
Wind: 13 mph from Southwest

Location: Leipzig-Schkeuditz

Current Time: Feb 6, 2016 at 1:30:46 AM

Latest Report: Feb 6, 2016 at 12:50 AM


Visibility: 10 mi

Pressure: 30.12 "Hg

Humidity: 93%

Dew point: 41 °F

Location of Naumburg (Saale)Location

Historic Weather in Naumburg (Saale) — Graph

°F

Naumburg (Saale) Temperature Yesterday

Maximum temperature yesterday: 43 °F (at 12:20 PM)
Minimum temperature yesterday: 34 °F (at 1:20 AM)
Average temperature yesterday: 39 °F

High & Low Weather Summary for the Past Weeks

 TemperatureHumidityPressure
High54 °F (Jan 26, 12:50 PM)100% (Jan 21, 11:50 PM)30.51 "Hg (Jan 21, 11:50 PM)
Low10 °F (Jan 22, 7:20 AM)53% (Feb 3, 3:50 PM)29.65 "Hg (Jan 30, 5:50 PM)
Average41 °F82%30.11 "Hg
* Reported Jan 21 11:20 PM — Feb 5 11:50 PM, Naumburg (Saale), Weather by CustomWeather, © 2016

Note: Actual official high and low records may vary slightly from our data, if they occured in-between our weather recording intervals... More about our weather records

Advertising

Naumburg (Saale) Weather History for the Previous 24 Hours

 ConditionsComfort  
Time TempWeatherWind HumidityBarometerVisibility
11:50 PM
Fri, Feb 5
43 °FClear.8 mph87%30.15 "Hg10 mi
11:20 PM41 °FPassing clouds.8 mph93%30.15 "HgN/A
10:50 PM43 °FPartly cloudy.9 mph87%30.15 "HgN/A
10:20 PM43 °FMostly cloudy.9 mph93%30.15 "HgN/A
9:50 PM43 °FLight rain. Mostly cloudy.12 mph93%30.18 "HgN/A
9:20 PM43 °FLight rain. Mostly cloudy.10 mph93%30.18 "HgN/A
8:50 PM43 °FLight rain. Overcast.12 mph93%30.18 "HgN/A
8:20 PM43 °FLight rain. Overcast.14 mph93%30.18 "HgN/A
7:50 PM43 °FMostly cloudy.14 mph87%30.18 "HgN/A
7:20 PM41 °FMostly cloudy.10 mph93%30.18 "HgN/A
6:50 PM41 °FPassing clouds.10 mph93%30.18 "HgN/A
6:20 PM41 °FLight rain. Overcast.10 mph93%30.18 "HgN/A
5:50 PM41 °FMostly cloudy.12 mph93%30.18 "HgN/A
5:20 PM41 °FLight rain. Overcast.9 mph93%30.18 "HgN/A
4:50 PM39 °FLight rain. More clouds than sun.10 mph93%30.18 "HgN/A
4:20 PM39 °FLight rain. Mostly cloudy.10 mph93%30.18 "Hg5 mi
3:50 PM41 °FLight rain. Overcast.8 mph87%30.18 "HgN/A
3:20 PM39 °FLight rain. Overcast.10 mph93%30.18 "Hg5 mi
2:50 PM39 °FLight rain. More clouds than sun.14 mph93%30.21 "Hg5 mi
2:20 PM41 °FLight rain. Mostly cloudy.14 mph81%30.21 "HgN/A
1:50 PM41 °FLight rain. Mostly cloudy.14 mph81%30.21 "HgN/A
1:20 PM41 °FLight rain. Mostly cloudy.16 mph76%30.24 "HgN/A
12:50 PM41 °FBroken clouds.17 mph70%30.24 "HgN/A
12:20 PM43 °FPartly sunny.15 mph71%30.24 "HgN/A
11:50 AM41 °FPartly sunny.13 mph76%30.27 "HgN/A
11:20 AM39 °FPartly sunny.14 mph81%30.27 "HgN/A
10:50 AM39 °FBroken clouds.13 mph81%30.30 "HgN/A
10:20 AM37 °FBroken clouds.12 mph87%30.30 "HgN/A
9:50 AM37 °FPartly sunny.12 mph87%30.27 "HgN/A
9:20 AM37 °FPartly sunny.10 mph87%30.30 "HgN/A
8:50 AM36 °FPartly sunny.12 mph93%30.27 "HgN/A
8:20 AM36 °FPartly sunny.10 mph93%30.27 "HgN/A
7:50 AM36 °FPartly sunny.12 mph93%30.27 "HgN/A
7:20 AM36 °FPassing clouds.10 mph93%30.27 "HgN/A
6:50 AM36 °FPassing clouds.8 mph93%30.27 "HgN/A
6:20 AM36 °FPassing clouds.10 mph93%30.27 "HgN/A
5:50 AM36 °FPartly cloudy.10 mph93%30.27 "HgN/A
5:20 AM36 °FPartly cloudy.10 mph93%30.24 "HgN/A
4:50 AM36 °FPassing clouds.12 mph93%30.24 "HgN/A
4:20 AM36 °FPassing clouds.10 mph93%30.24 "HgN/A
3:50 AM36 °FPassing clouds.9 mph93%30.24 "HgN/A
3:20 AM36 °FPassing clouds.8 mph93%30.24 "HgN/A
2:50 AM36 °FPassing clouds.9 mph93%30.21 "HgN/A
2:20 AM37 °FPassing clouds.10 mph87%30.21 "HgN/A
1:50 AM37 °FPartly cloudy.10 mph87%30.21 "HgN/A
1:20 AM34 °FPassing clouds.9 mph93%30.18 "HgN/A
Weather by CustomWeather, © 2016

See weather overviewHow to use our weather pages